QPF
0.00 0.00 0.00 0.00 0.00 0.00 0.00 0.00 0.00 0.04 0.06 0.02 0.00 0.00 0.00 0.00 0.00 0.00 0.00 0.00 0.00 0.00 0.00 0.00 0.00 0.00 0.00 0.00 0.00 0.00 0.00 0.00 0.00 0.00 0.00 0.00 0.00 0.00 0.00 0.00 0.00 0.00 0.00
0.00 0.00 0.00 0.00 0.00 0.00 0.00 0.00 0.00 0.03 0.05 0.03 0.00 0.00 0.00 0.00 0.00 0.00 0.00 0.00 0.00 0.00 0.00 0.00 0.00 0.00 0.00 0.00 0.00 0.00 0.00 0.00 0.00 0.00 0.00 0.00 0.00 0.00 0.00 0.00 0.00 0.00 0.00
0.00 0.00 0.00 0.00 0.00 0.00 0.00 0.00 0.00 0.01 0.02 0.05 0.03 0.00 0.00 0.00 0.00 0.00 0.00 0.00 0.00 0.00 0.00 0.00 0.00 0.00 0.00 0.00 0.00 0.00 0.00 0.00 0.00 0.00 0.00 0.00 0.00 0.00 0.00 0.00 0.00 0.00 0.00
0.00 0.00 0.00 0.00 0.00 0.00 0.00 0.00 0.01 0.08 0.14 0.14 0.10 0.04 0.00 0.00 0.00 0.00 0.00 0.00 0.00 0.00 0.00 0.00 0.00 0.00 0.00 0.00 0.00 0.00 0.00 0.00 0.00 0.00 0.00 0.00 0.00 0.00 0.00 0.00 0.00 0.00 0.00
0.00 0.00 0.00 0.00 0.00 0.00 0.01 0.03 0.07 0.13 0.14 0.07 0.03 0.01 0.00 0.00 0.00 0.00 0.00 0.00 0.00 0.00 0.00 0.00 0.00 0.00 0.00 0.00 0.00 0.00 0.00 0.00 0.00 0.00 0.00 0.00 0.00 0.00 0.00 0.00 0.00 0.00 0.00
0.00 0.00 0.00 0.06 0.08 0.15 0.20 0.14 0.22 0.27 0.12 0.01 0.00 0.00 0.01 0.00 0.00 0.00 0.00 0.00 0.00 0.00 0.00 0.00 0.00 0.00 0.00 0.00 0.00 0.00 0.00 0.00 0.00 0.00 0.00 0.00 0.00 0.00 0.00 0.00 0.00 0.00 0.00
0.01 0.01 0.02 0.10 0.10 0.27 0.34 0.33 0.15 0.10 0.05 0.01 0.00 0.01 0.01 0.00 0.02 0.00 0.00 0.00 0.00 0.00 0.00 0.00 0.00 0.00 0.00 0.00 0.00 0.00 0.00 0.00 0.00 0.00 0.00 0.00 0.00 0.00 0.00 0.00 0.00 0.00 0.00
0.00 0.01 0.01 0.00 0.03 0.20 0.18 0.06 0.08 0.10 0.05 0.00 0.01 0.02 0.05 0.03 0.02 0.01 0.00 0.00 0.00 0.00 0.00 0.00 0.00 0.00 0.00 0.00 0.00 0.00 0.00 0.00 0.00 0.00 0.00 0.00 0.00 0.00 0.00 0.00 0.00 0.00 0.00
0.00 0.00 0.00 0.00 0.02 0.01 0.03 0.01 0.01 0.01 0.00 0.00 0.01 0.04 0.05 0.04 0.03 0.02 0.01 0.00 0.00 0.00 0.00 0.00 0.00 0.00 0.00 0.00 0.00 0.00 0.00 0.00 0.00 0.00 0.00 0.00 0.00 0.00 0.00 0.00 0.00 0.00 0.00
0.00 0.00 0.00 0.00 0.00 0.00 0.00 0.00 0.00 0.00 0.01 0.03 0.05 0.08 0.10 0.09 0.04 0.01 0.00 0.01 0.01 0.01 0.00 0.00 0.00 0.00 0.00 0.00 0.00 0.00 0.00 0.00 0.00 0.00 0.00 0.00 0.00 0.00 0.00 0.00 0.00 0.00 0.00
0.00 0.00 0.00 0.00 0.00 0.00 0.00 0.00 0.00 0.01 0.02 0.06 0.09 0.12 0.18 0.22 0.12 0.05 0.01 0.02 0.04 0.03 0.01 0.00 0.00 0.00 0.00 0.00 0.00 0.00 0.00 0.00 0.00 0.00 0.00 0.00 0.00 0.00 0.00 0.00 0.00 0.00 0.00
0.00 0.00 0.00 0.00 0.00 0.00 0.00 0.00 0.01 0.02 0.03 0.11 0.13 0.23 0.26 0.44 0.35 0.12 0.05 0.04 0.04 0.05 0.03 0.01 0.01 0.01 0.00 0.00 0.00 0.00 0.00 0.00 0.00 0.00 0.00 0.00 0.00 0.00 0.00 0.00 0.00 0.00 0.00
0.01 0.02 0.02 0.00 0.00 0.00 0.00 0.00 0.00 0.00 0.01 0.06 0.23 0.43 0.60 0.60 0.53 0.49 0.33 0.19 0.10 0.07 0.07 0.08 0.03 0.01 0.00 0.00 0.00 0.00 0.00 0.00 0.00 0.00 0.00 0.00 0.00 0.00 0.00 0.00 0.00 0.00 0.00
0.01 0.03 0.01 0.00 0.00 0.00 0.00 0.00 0.00 0.00 0.01 0.04 0.07 0.10 0.20 0.29 0.33 0.19 0.10 0.08 0.07 0.07 0.08 0.11 0.14 0.09 0.05 0.02 0.01 0.00 0.00 0.00 0.00 0.00 0.00 0.00 0.00 0.00 0.00 0.00 0.00 0.00 0.00
0.01 0.00 0.00 0.00 0.00 0.00 0.00 0.00 0.00 0.00 0.00 0.00 0.00 0.00 0.01 0.03 0.03 0.02 0.03 0.07 0.07 0.08 0.08 0.16 0.17 0.11 0.05 0.02 0.02 0.00 0.00 0.00 0.00 0.00 0.00 0.00 0.00 0.00 0.00 0.00 0.00 0.00 0.00
0.00 0.00 0.00 0.00 0.00 0.00 0.00 0.00 0.00 0.00 0.00 0.00 0.00 0.00 0.00 0.00 0.00 0.00 0.00 0.00 0.00 0.00 0.01 0.06 0.11 0.11 0.08 0.06 0.04 0.01 0.00 0.00 0.00 0.00 0.00 0.00 0.00 0.01 0.01 0.00 0.01 0.01 0.01
0.00 0.00 0.00 0.01 0.01 0.04 0.04 0.03 0.01 0.00 0.00 0.00 0.00 0.00 0.00 0.00 0.00 0.01 0.01 0.04 0.06 0.08 0.09 0.08 0.04 0.01 0.01 0.01 0.00 0.00 0.00 0.00 0.00 0.00 0.00 0.00 0.00 0.00 0.00 0.01 0.03 0.04 0.03
0.01 0.01 0.02 0.03 0.06 0.09 0.16 0.12 0.05 0.01 0.00 0.00 0.00 0.00 0.01 0.00 0.02 0.05 0.05 0.05 0.03 0.02 0.01 0.00 0.00 0.00 0.00 0.00 0.00 0.00 0.00 0.00 0.00 0.00 0.00 0.00 0.00 0.00 0.00 0.00 0.00 0.00 0.00
0.01 0.02 0.04 0.04 0.03 0.03 0.04 0.07 0.08 0.03 0.00 0.00 0.00 0.00 0.00 0.00 0.00 0.00 0.00 0.00 0.00 0.00 0.00 0.00 0.00 0.00 0.00 0.00 0.00 0.00 0.00 0.00 0.00 0.00 0.00 0.00 0.00 0.00 0.00 0.00 0.00 0.00 0.00
0.00 0.00 0.01 0.02 0.00 0.00 0.00 0.00 0.00 0.00 0.00 0.00 0.00 0.00 0.00 0.00 0.00 0.00 0.00 0.00 0.00 0.00 0.00 0.00 0.00 0.00 0.00 0.00 0.00 0.00 0.00 0.00 0.00 0.00 0.00 0.00 0.00 0.00 0.00 0.00 0.00 0.00 0.00
0.00 0.00 0.00 0.00 0.00 0.00 0.00 0.00 0.00 0.00 0.00 0.00 0.00 0.00 0.00 0.00 0.00 0.00 0.00 0.00 0.00 0.00 0.00 0.00 0.00 0.00 0.00 0.00 0.00 0.00 0.00 0.00 0.00 0.00 0.00 0.00 0.00 0.00 0.00 0.00 0.00 0.00 0.00
0.00 0.00 0.00 0.00 0.00 0.00 0.00 0.00 0.00 0.00 0.00 0.00 0.00 0.00 0.00 0.00 0.00 0.00 0.00 0.00 0.00 0.00 0.00 0.00 0.00 0.00 0.00 0.00 0.00 0.00 0.00 0.00 0.00 0.00 0.00 0.00 0.00 0.00 0.00 0.00 0.00 0.00 0.00
0.00 0.00 0.00 0.00 0.00 0.00 0.00 0.00 0.00 0.00 0.00 0.00 0.00 0.00 0.00 0.00 0.00 0.00 0.00 0.00 0.00 0.00 0.00 0.00 0.00 0.00 0.00 0.00 0.00 0.00 0.00 0.00 0.00 0.00 0.00 0.00 0.00 0.00 0.00 0.00 0.00 0.00 0.00
0.00 0.00 0.00 0.00 0.00 0.00 0.00 0.00 0.00 0.00 0.00 0.00 0.00 0.00 0.00 0.00 0.00 0.00 0.00 0.00 0.00 0.00 0.00 0.00 0.00 0.00 0.00 0.00 0.00 0.00 0.00 0.00 0.00 0.00 0.00 0.00 0.00 0.00 0.00 0.00 0.00 0.00 0.00
0.00 0.00 0.00 0.00 0.00 0.00 0.00 0.00 0.00 0.00 0.00 0.00 0.00 0.00 0.00 0.00 0.00 0.00 0.00 0.00 0.00 0.00 0.00 0.00 0.00 0.00 0.00 0.00 0.00 0.00 0.00 0.00 0.00 0.00 0.00 0.00 0.00 0.00 0.00 0.00 0.00 0.00 0.00
0.00 0.00 0.00 0.00 0.00 0.00 0.00 0.00 0.00 0.00 0.00 0.00 0.00 0.00 0.00 0.00 0.00 0.00 0.00 0.00 0.00 0.00 0.00 0.00 0.00 0.00 0.00 0.00 0.00 0.00 0.00 0.00 0.00 0.00 0.00 0.00 0.00 0.00 0.00 0.00 0.00 0.00 0.01
MSLP
1008.58 1008.73 1009.41 1009.80 1010.21 1010.91 1010.98 1011.23 1011.59 1011.96 1012.58 1012.74 1013.27 1013.63 1013.88 1014.12 1014.32 1014.53 1014.45 1014.29 1014.56 1014.47 1014.45 1014.54 1014.63 1014.68 1014.06 1013.74 1013.77 1013.55 1013.48 1013.40 1013.10 1012.44 1012.41 1013.13 1013.67 1013.75 1013.42 1013.42 1013.35 1012.87 1012.59
1007.75 1008.40 1008.68 1009.21 1009.45 1009.57 1010.32 1010.61 1011.02 1011.53 1012.16 1012.59 1012.96 1013.37 1013.56 1013.90 1014.25 1014.52 1014.36 1013.94 1014.27 1014.20 1014.35 1014.50 1014.49 1014.26 1014.73 1014.63 1014.13 1014.40 1014.19 1014.26 1013.97 1013.58 1013.41 1013.30 1013.20 1013.33 1013.50 1013.55 1013.11 1012.20 1012.53
1007.43 1007.87 1008.42 1008.62 1009.05 1009.24 1009.28 1009.95 1010.30 1010.86 1011.62 1012.11 1012.71 1013.25 1013.51 1013.77 1013.75 1014.00 1014.27 1014.10 1014.19 1014.13 1014.10 1014.36 1014.32 1014.49 1014.58 1014.55 1014.85 1014.49 1013.92 1014.09 1014.07 1013.85 1013.63 1013.22 1013.03 1013.16 1012.93 1013.04 1012.95 1012.70 1012.27
1007.00 1007.61 1008.05 1008.46 1008.44 1008.72 1009.05 1009.48 1010.06 1010.66 1011.56 1012.30 1012.57 1012.92 1013.20 1013.49 1013.72 1013.81 1013.76 1013.96 1014.10 1014.04 1014.22 1014.33 1014.39 1014.60 1014.55 1014.76 1014.84 1014.82 1014.65 1014.65 1014.06 1014.15 1013.42 1013.01 1012.88 1012.77 1013.02 1012.84 1012.35 1012.27 1011.85
1007.31 1007.77 1007.93 1008.24 1008.44 1008.62 1008.85 1009.35 1009.83 1010.31 1010.82 1011.34 1012.02 1012.45 1012.88 1013.05 1013.00 1013.04 1013.38 1013.62 1013.69 1013.83 1014.05 1014.41 1014.59 1014.77 1015.08 1015.30 1015.01 1014.62 1014.83 1014.65 1014.19 1013.82 1013.55 1013.06 1012.74 1012.84 1012.90 1012.56 1012.66 1012.37 1012.07
1008.14 1008.31 1008.41 1008.67 1009.07 1009.09 1009.40 1009.50 1009.83 1010.27 1010.11 1010.35 1010.02 1010.84 1012.06 1012.39 1012.01 1012.57 1013.04 1013.06 1013.37 1013.52 1013.65 1013.98 1014.37 1014.84 1015.17 1015.37 1015.51 1015.51 1015.45 1015.37 1015.14 1014.40 1013.80 1013.70 1013.79 1013.73 1013.29 1013.13 1012.75 1012.62 1012.01
1009.44 1009.78 1009.85 1010.05 1010.56 1010.82 1010.88 1010.87 1010.91 1011.07 1011.72 1011.37 1011.05 1010.91 1011.13 1011.72 1012.30 1012.28 1012.90 1012.95 1012.90 1013.10 1013.40 1013.66 1013.84 1013.43 1014.45 1014.86 1015.30 1015.46 1015.61 1015.69 1015.60 1015.43 1014.85 1014.48 1014.46 1014.24 1014.09 1013.85 1013.47 1013.57 1012.78
1010.73 1011.17 1011.29 1011.50 1011.72 1011.95 1011.87 1011.80 1011.82 1011.92 1011.74 1011.23 1010.82 1010.84 1010.91 1011.22 1011.84 1012.27 1012.72 1012.90 1013.10 1012.91 1013.05 1013.40 1013.98 1014.08 1014.34 1014.68 1014.68 1014.80 1014.49 1015.02 1015.10 1015.17 1014.81 1014.81 1014.83 1014.77 1014.56 1014.32 1014.12 1013.91 1013.27
1011.67 1012.04 1012.22 1012.24 1012.25 1012.33 1012.17 1011.87 1011.33 1011.03 1010.74 1010.39 1010.17 1010.20 1010.55 1011.02 1011.75 1012.39 1012.89 1012.78 1012.70 1012.97 1013.19 1013.13 1013.46 1014.34 1014.87 1015.01 1015.16 1014.98 1014.50 1014.14 1014.44 1014.69 1014.85 1015.04 1015.05 1015.15 1015.12 1014.76 1013.96 1013.28 1012.13
1012.19 1012.27 1012.34 1012.26 1012.07 1011.90 1012.03 1011.80 1011.42 1010.93 1010.22 1009.82 1009.58 1009.80 1010.21 1010.61 1011.33 1011.97 1012.60 1012.49 1012.86 1013.18 1013.17 1013.49 1013.22 1014.22 1015.42 1015.63 1015.48 1014.57 1014.42 1014.21 1014.06 1014.53 1014.76 1014.63 1014.63 1014.47 1014.79 1014.68 1014.01 1013.20 1012.46
1012.36 1012.31 1012.29 1012.37 1012.03 1012.20 1012.27 1011.81 1011.22 1010.45 1009.80 1009.55 1009.59 1009.74 1010.25 1010.43 1011.33 1011.56 1012.78 1013.64 1013.74 1013.76 1014.21 1013.58 1013.24 1013.87 1015.19 1015.82 1016.17 1015.26 1014.72 1014.82 1014.50 1014.71 1014.16 1013.35 1012.77 1012.76 1012.96 1013.57 1013.43 1013.36 1012.68
1012.42 1012.48 1012.52 1012.56 1012.47 1012.63 1012.53 1012.50 1012.09 1010.96 1010.49 1010.18 1010.39 1010.93 1011.60 1011.77 1011.47 1012.43 1013.64 1014.27 1014.69 1014.65 1014.66 1014.23 1014.42 1015.12 1015.85 1015.65 1016.25 1015.69 1015.10 1014.90 1014.51 1014.05 1013.56 1012.98 1012.59 1012.30 1012.17 1012.29 1012.41 1012.77 1012.61
1012.60 1012.73 1012.83 1013.01 1012.91 1012.61 1012.61 1012.75 1012.88 1012.76 1012.54 1012.37 1012.17 1012.33 1012.42 1012.69 1013.53 1014.08 1014.58 1015.06 1015.22 1015.25 1015.29 1015.35 1015.52 1015.76 1016.21 1016.46 1016.05 1015.71 1015.25 1014.72 1014.27 1013.74 1013.49 1013.19 1012.83 1012.50 1012.34 1012.32 1012.21 1012.35 1012.31
1012.66 1012.81 1012.92 1013.27 1013.66 1013.87 1013.26 1012.60 1012.99 1013.22 1013.42 1013.63 1013.73 1013.83 1014.19 1014.18 1014.22 1014.82 1015.12 1015.31 1015.50 1015.40 1015.37 1015.59 1015.99 1016.24 1016.66 1016.56 1015.97 1015.45 1015.26 1014.57 1014.16 1014.08 1013.85 1013.64 1013.21 1012.83 1012.27 1012.01 1011.68 1011.49 1011.34
1012.76 1013.05 1012.97 1013.43 1013.93 1014.26 1014.58 1014.77 1014.07 1014.91 1014.90 1014.38 1014.52 1014.52 1015.07 1015.33 1015.66 1015.83 1015.86 1015.91 1015.67 1015.56 1015.62 1015.55 1015.61 1015.95 1016.10 1015.80 1015.52 1015.03 1014.70 1014.27 1014.31 1014.23 1014.05 1013.66 1013.26 1012.84 1012.25 1011.89 1011.63 1011.27 1011.16
1012.83 1013.17 1013.49 1013.41 1013.52 1013.50 1014.11 1015.00 1015.93 1015.80 1015.46 1015.43 1015.46 1015.35 1015.74 1016.30 1016.14 1016.04 1016.14 1015.98 1015.91 1015.73 1015.48 1015.40 1015.17 1015.34 1015.19 1015.13 1015.03 1015.01 1014.90 1014.72 1014.71 1014.73 1014.61 1014.31 1013.86 1013.60 1013.04 1012.67 1012.06 1011.39 1010.95
1012.97 1013.17 1012.86 1013.03 1013.08 1013.79 1013.95 1014.32 1015.28 1016.48 1016.24 1016.30 1016.20 1016.14 1016.19 1016.49 1016.49 1016.39 1016.36 1016.23 1016.00 1015.89 1015.58 1015.39 1015.38 1015.08 1015.00 1014.97 1015.06 1015.08 1015.03 1015.18 1015.22 1014.99 1014.83 1014.49 1014.14 1013.67 1013.46 1012.88 1012.50 1012.18 1011.76
1013.55 1013.75 1013.42 1013.43 1013.67 1013.68 1014.18 1014.62 1014.83 1015.09 1015.29 1016.09 1016.58 1016.55 1016.62 1016.64 1016.56 1016.45 1016.37 1016.20 1015.78 1015.63 1015.21 1015.17 1015.12 1015.15 1015.20 1015.27 1015.38 1015.37 1015.36 1015.13 1014.94 1014.63 1014.33 1014.18 1013.93 1013.55 1013.38 1013.24 1013.07 1012.69 1012.60
1013.47 1013.67 1013.62 1013.78 1013.86 1013.97 1014.08 1014.20 1014.38 1014.63 1014.63 1014.84 1015.59 1016.07 1016.21 1016.35 1016.33 1015.92 1015.74 1015.33 1014.70 1014.42 1014.34 1014.15 1014.20 1014.22 1014.11 1014.20 1014.20 1014.33 1014.33 1014.15 1014.20 1014.21 1013.69 1013.39 1013.28 1013.14 1012.95 1012.75 1012.47 1012.71 1012.92
1014.41 1014.85 1014.52 1014.10 1014.30 1014.37 1014.42 1014.06 1013.77 1013.88 1014.06 1014.53 1014.86 1015.80 1015.67 1015.42 1015.14 1015.02 1014.95 1015.14 1014.71 1014.54 1014.61 1014.47 1014.56 1014.64 1014.61 1014.67 1014.60 1014.42 1014.20 1013.89 1013.67 1013.52 1013.32 1013.34 1013.22 1012.95 1012.74 1012.58 1012.54 1012.25 1012.08
1014.13 1014.58 1015.02 1014.41 1014.33 1014.30 1014.00 1013.98 1014.10 1014.13 1014.20 1014.46 1014.93 1016.25 1016.41 1016.09 1014.89 1014.87 1014.78 1014.80 1014.73 1014.73 1014.68 1014.73 1014.88 1014.61 1014.39 1014.15 1014.15 1014.03 1013.86 1013.58 1013.36 1013.20 1012.99 1012.86 1012.68 1012.66 1012.49 1012.30 1012.11 1011.91 1011.67
1014.53 1014.45 1014.48 1014.56 1014.73 1014.87 1014.71 1014.70 1014.78 1014.78 1014.82 1014.78 1014.66 1015.60 1015.77 1015.37 1014.75 1014.78 1014.74 1014.72 1014.56 1014.59 1014.50 1014.47 1014.38 1014.19 1014.04 1013.97 1013.94 1013.69 1013.46 1013.28 1013.14 1013.12 1013.23 1013.45 1013.25 1013.10 1013.14 1012.71 1012.33 1012.08 1011.84
1014.56 1014.50 1014.81 1015.00 1015.13 1015.28 1014.95 1015.06 1015.18 1015.11 1014.89 1015.03 1014.98 1015.02 1015.01 1015.05 1014.95 1014.84 1014.85 1014.64 1014.56 1014.50 1014.31 1014.21 1014.07 1013.81 1013.50 1013.48 1013.57 1013.70 1013.62 1013.57 1013.57 1013.63 1013.43 1013.32 1013.33 1013.23 1012.84 1012.75 1012.68 1012.39 1012.17
1015.14 1015.04 1015.24 1015.45 1015.61 1015.26 1015.35 1015.37 1015.35 1015.64 1015.53 1015.20 1015.05 1015.02 1014.81 1014.65 1014.38 1014.19 1014.06 1013.93 1013.84 1013.68 1013.52 1013.51 1013.50 1013.48 1013.58 1013.61 1013.56 1013.68 1013.49 1013.21 1013.09 1013.30 1013.22 1013.12 1012.95 1012.76 1012.73 1012.49 1012.19 1011.86 1011.61
1015.36 1015.53 1015.61 1015.75 1015.78 1015.73 1015.61 1015.50 1015.47 1015.48 1015.35 1015.20 1015.01 1014.86 1014.63 1014.50 1014.38 1014.19 1014.10 1014.01 1013.84 1013.60 1013.43 1013.47 1013.19 1012.98 1012.74 1012.87 1012.78 1012.57 1013.02 1013.05 1013.06 1012.80 1012.57 1012.55 1012.43 1012.15 1011.94 1011.57 1011.29 1011.29 1011.05
1015.92 1015.93 1015.88 1015.80 1015.71 1015.75 1015.77 1015.71 1015.59 1015.47 1015.27 1015.29 1014.98 1014.68 1014.72 1014.86 1014.49 1014.40 1014.22 1014.38 1014.66 1014.64 1014.26 1013.98 1013.46 1013.13 1012.91 1012.69 1012.78 1013.07 1013.00 1013.04 1012.96 1013.05 1012.77 1012.04 1011.55 1011.22 1011.10 1011.00 1010.87 1010.61 1010.21
Thickness
5835 5835 5828 5824 5821 5814 5811 5809 5805 5800 5793 5791 5786 5782 5779 5776 5774 5769 5768 5769 5765 5765 5766 5764 5762 5762 5766 5769 5769 5769 5767 5766 5759 5769 5774 5771 5765 5765 5768 5766 5767 5769 5773
5842 5835 5831 5827 5824 5822 5814 5812 5808 5800 5795 5788 5784 5779 5777 5772 5768 5764 5764 5767 5762 5761 5760 5759 5757 5761 5755 5756 5762 5756 5756 5756 5754 5751 5759 5761 5763 5764 5762 5761 5763 5769 5769
5844 5837 5830 5827 5822 5819 5819 5813 5810 5802 5794 5790 5783 5775 5772 5768 5767 5763 5759 5760 5758 5757 5757 5754 5754 5752 5750 5750 5748 5751 5755 5753 5751 5749 5749 5758 5760 5759 5759 5757 5758 5759 5761
5845 5836 5829 5824 5822 5819 5815 5810 5803 5798 5787 5778 5775 5771 5767 5763 5760 5758 5757 5754 5751 5751 5749 5747 5746 5744 5744 5742 5741 5741 5743 5741 5746 5741 5746 5749 5751 5754 5751 5748 5751 5756 5757
5836 5828 5825 5821 5820 5815 5810 5804 5798 5791 5785 5779 5771 5764 5760 5757 5757 5756 5752 5747 5745 5744 5742 5739 5737 5735 5732 5731 5733 5737 5733 5733 5735 5736 5736 5740 5742 5740 5739 5745 5740 5744 5748
5824 5819 5819 5813 5809 5804 5799 5793 5787 5776 5763 5772 5775 5764 5753 5751 5755 5751 5743 5743 5739 5738 5736 5734 5732 5726 5722 5720 5719 5721 5721 5719 5719 5723 5727 5726 5724 5724 5731 5730 5733 5731 5730
5805 5800 5798 5793 5784 5779 5777 5772 5768 5760 5752 5755 5756 5751 5746 5741 5737 5739 5732 5734 5733 5731 5729 5728 5725 5732 5722 5717 5711 5711 5710 5708 5709 5709 5710 5712 5711 5714 5714 5714 5717 5714 5719
5788 5781 5776 5769 5764 5760 5756 5752 5750 5748 5745 5746 5747 5745 5741 5737 5728 5725 5722 5721 5717 5721 5721 5719 5715 5716 5715 5710 5710 5706 5709 5704 5702 5701 5702 5702 5703 5702 5704 5704 5704 5704 5710
5774 5766 5761 5756 5751 5747 5744 5744 5746 5745 5745 5744 5743 5739 5734 5728 5722 5715 5710 5709 5708 5706 5707 5709 5708 5702 5699 5696 5696 5694 5696 5699 5697 5693 5693 5690 5689 5689 5690 5690 5693 5695 5703
5763 5759 5754 5751 5747 5744 5739 5737 5737 5737 5739 5740 5738 5733 5726 5719 5712 5708 5701 5700 5694 5691 5692 5690 5695 5688 5678 5676 5679 5687 5684 5685 5688 5683 5685 5685 5682 5682 5680 5679 5683 5685 5689
5755 5751 5747 5742 5740 5733 5729 5729 5728 5731 5733 5732 5727 5723 5716 5712 5700 5696 5686 5678 5675 5675 5672 5677 5682 5674 5664 5659 5656 5668 5674 5672 5675 5671 5676 5683 5688 5687 5685 5677 5677 5676 5679
5748 5742 5737 5732 5729 5723 5719 5714 5711 5718 5719 5719 5712 5702 5696 5693 5688 5675 5670 5661 5657 5657 5656 5661 5659 5650 5644 5646 5639 5648 5656 5657 5661 5664 5666 5671 5675 5678 5681 5679 5674 5670 5671
5738 5732 5727 5721 5718 5716 5709 5703 5696 5694 5693 5691 5689 5684 5681 5678 5667 5658 5651 5647 5643 5642 5642 5642 5638 5635 5630 5624 5625 5630 5637 5644 5647 5653 5654 5656 5661 5665 5667 5666 5665 5663 5663
5729 5723 5718 5710 5701 5695 5697 5699 5693 5689 5684 5679 5673 5668 5661 5659 5653 5645 5642 5638 5635 5635 5634 5630 5624 5619 5616 5617 5618 5622 5624 5630 5634 5635 5638 5639 5644 5647 5652 5655 5655 5657 5657
5720 5714 5710 5702 5692 5686 5680 5676 5680 5668 5666 5670 5663 5658 5651 5645 5640 5634 5632 5630 5630 5628 5626 5623 5621 5617 5615 5615 5615 5619 5621 5625 5626 5626 5626 5627 5630 5633 5639 5643 5644 5646 5644
5712 5705 5698 5695 5690 5688 5680 5667 5654 5653 5652 5649 5646 5646 5641 5630 5628 5626 5622 5622 5620 5620 5622 5619 5619 5616 5617 5616 5615 5614 5613 5613 5612 5611 5611 5612 5614 5616 5620 5623 5627 5631 5633
5704 5699 5699 5692 5690 5678 5674 5668 5658 5643 5639 5635 5633 5632 5628 5622 5621 5619 5616 5614 5614 5613 5613 5613 5610 5612 5610 5609 5606 5604 5604 5601 5600 5600 5599 5600 5601 5603 5603 5607 5609 5609 5612
5695 5685 5688 5683 5678 5676 5667 5659 5655 5649 5645 5637 5626 5625 5619 5617 5615 5612 5609 5607 5610 5607 5608 5605 5603 5601 5597 5594 5591 5590 5589 5588 5588 5589 5589 5588 5588 5588 5587 5586 5586 5588 5587
5693 5687 5682 5677 5673 5669 5664 5658 5653 5647 5644 5639 5630 5620 5615 5611 5608 5607 5604 5607 5610 5609 5607 5605 5601 5597 5595 5591 5589 5584 5582 5581 5579 5576 5577 5578 5576 5575 5574 5574 5575 5566 5563
5678 5670 5669 5669 5664 5660 5653 5651 5650 5645 5639 5632 5625 5613 5612 5610 5610 5607 5604 5597 5597 5595 5590 5588 5585 5580 5577 5574 5572 5571 5569 5569 5568 5567 5566 5563 5562 5562 5561 5559 5557 5557 5557
5675 5668 5659 5661 5657 5653 5652 5646 5640 5634 5628 5621 5615 5598 5590 5591 5598 5593 5590 5586 5583 5580 5578 5575 5570 5570 5568 5567 5565 5562 5561 5560 5560 5558 5557 5554 5552 5548 5546 5545 5544 5543 5543
5665 5662 5657 5651 5646 5639 5635 5630 5623 5617 5611 5606 5604 5594 5586 5587 5588 5583 5580 5576 5574 5571 5568 5565 5563 5562 5560 5558 5555 5554 5552 5550 5547 5544 5539 5533 5531 5529 5525 5525 5525 5525 5524
5658 5654 5647 5640 5633 5623 5623 5616 5609 5604 5602 5597 5593 5588 5585 5581 5578 5575 5571 5570 5567 5563 5561 5558 5555 5554 5552 5549 5545 5541 5538 5535 5531 5526 5524 5521 5516 5512 5511 5507 5504 5504 5504
5646 5641 5633 5626 5618 5617 5610 5605 5600 5591 5589 5588 5585 5581 5579 5576 5574 5572 5570 5568 5565 5562 5559 5555 5551 5547 5542 5538 5534 5529 5526 5524 5520 5515 5510 5507 5504 5501 5497 5495 5493 5494 5493
5635 5628 5621 5614 5608 5603 5600 5596 5592 5587 5584 5581 5579 5576 5574 5571 5567 5564 5561 5557 5554 5551 5548 5542 5540 5537 5535 5531 5527 5525 5518 5514 5509 5505 5501 5496 5493 5491 5489 5487 5485 5481 5480
5621 5615 5610 5605 5601 5596 5591 5586 5584 5581 5579 5574 5573 5571 5566 5559 5558 5554 5551 5544 5537 5531 5529 5527 5526 5524 5522 5519 5515 5510 5506 5502 5497 5492 5487 5487 5487 5485 5480 5475 5471 5470 5470